When you browse on this site, cookies collect data to enhance your experience and personalize the content and advertising you see.
Visit our Privacy Policy to learn more. By continuing to use the site, you agree to this use of cookies and data.
  • In Schweiz
  • Länderverzeichnis
  • Für 7 Tage
  • Wassertemperatur
  • Satellitenkarten
  • Wetterkarte
  • Widgets
  • user-avatar
    Anmelden

    Stündliche Wetter Wlora

    Heute, 18 Juni, Dienstag

    Zeit Temperatur Niederschläge Wind Luftdruck Luftfeuchtigkeit
    00:00 +25°C° 0 mm 1 m/S 759 mmHg 76%
    01:00 +25°C° 0 mm 1 m/S 759 mmHg 77%
    02:00 +24°C° 0 mm 1 m/S 759 mmHg 77%
    03:00 +24°C° 0 mm 2 m/S 759 mmHg 78%
    04:00 +24°C° 0 mm 2 m/S 759 mmHg 78%
    05:00 +25°C° 0 mm 2 m/S 760 mmHg 74%
    06:00 +26°C° 0 mm 2 m/S 760 mmHg 69%
    07:00 +27°C° 0 mm 2 m/S 760 mmHg 64%
    08:00 +28°C° 0 mm 2 m/S 760 mmHg 59%
    09:00 +30°C° 0 mm 2 m/S 760 mmHg 54%
    10:00 +31°C° 0 mm 2 m/S 760 mmHg 49%
    11:00 +31°C° 0 mm 3 m/S 760 mmHg 51%
    12:00 +30°C° 0 mm 3 m/S 760 mmHg 53%
    13:00 +30°C° 0 mm 4 m/S 760 mmHg 55%
    14:00 +30°C° 0 mm 4 m/S 759 mmHg 56%
    15:00 +30°C° 0 mm 4 m/S 759 mmHg 56%
    16:00 +29°C° 0 mm 4 m/S 759 mmHg 57%
    17:00 +28°C° 0 mm 4 m/S 759 mmHg 61%
    18:00 +28°C° 0 mm 4 m/S 759 mmHg 65%
    19:00 +27°C° 0 mm 3 m/S 759 mmHg 69%
    20:00 +26°C° 0 mm 3 m/S 759 mmHg 69%
    21:00 +26°C° 0 mm 4 m/S 759 mmHg 69%
    22:00 +25°C° 0 mm 4 m/S 759 mmHg 68%
    23:00 +25°C° 0 mm 4 m/S 759 mmHg 68%

    Morgen, 19 Juni, Mittwoch

    Zeit Temperatur Niederschläge Wind Luftdruck Luftfeuchtigkeit
    00:00 +23°C° 0 mm 4 m/S 759 mmHg 68%
    01:00 +23°C° 0 mm 4 m/S 759 mmHg 67%
    02:00 +23°C° 0 mm 4 m/S 759 mmHg 67%
    03:00 +23°C° 0 mm 4 m/S 759 mmHg 66%
    04:00 +22°C° 0 mm 4 m/S 759 mmHg 66%
    05:00 +25°C° 0 mm 4 m/S 759 mmHg 63%
    06:00 +26°C° 0 mm 4 m/S 759 mmHg 61%
    07:00 +27°C° 0 mm 4 m/S 759 mmHg 59%
    08:00 +28°C° 0 mm 4 m/S 759 mmHg 55%
    09:00 +29°C° 0 mm 4 m/S 759 mmHg 51%
    10:00 +30°C° 0 mm 4 m/S 759 mmHg 47%
    11:00 +30°C° 0 mm 4 m/S 759 mmHg 48%
    12:00 +30°C° 0 mm 5 m/S 759 mmHg 50%
    13:00 +30°C° 0 mm 5 m/S 759 mmHg 52%
    14:00 +30°C° 0 mm 5 m/S 758 mmHg 54%
    15:00 +30°C° 0 mm 5 m/S 758 mmHg 56%
    16:00 +29°C° 0 mm 5 m/S 758 mmHg 59%
    17:00 +28°C° 0 mm 5 m/S 758 mmHg 64%
    18:00 +27°C° 0 mm 4 m/S 758 mmHg 70%
    19:00 +26°C° 0 mm 4 m/S 758 mmHg 75%
    20:00 +25°C° 0 mm 4 m/S 758 mmHg 75%
    21:00 +25°C° 0 mm 4 m/S 758 mmHg 75%
    22:00 +23°C° 0 mm 4 m/S 759 mmHg 76%
    23:00 +23°C° 0 mm 4 m/S 758 mmHg 76%

    übermorgen, 20 Juni, Donnerstag

    Zeit Temperatur Niederschläge Wind Luftdruck Luftfeuchtigkeit
    00:00 +23°C° 0 mm 4 m/S 758 mmHg 77%
    01:00 +22°C° 0 mm 5 m/S 758 mmHg 77%
    02:00 +22°C° 0 mm 4 m/S 758 mmHg 78%
    03:00 +22°C° 0 mm 4 m/S 758 mmHg 78%
    04:00 +22°C° 0 mm 4 m/S 758 mmHg 78%
    05:00 +23°C° 0 mm 4 m/S 758 mmHg 72%
    06:00 +25°C° 0 mm 4 m/S 758 mmHg 66%
    07:00 +27°C° 0 mm 4 m/S 758 mmHg 59%
    08:00 +28°C° 0 mm 4 m/S 758 mmHg 55%
    09:00 +29°C° 0 mm 4 m/S 758 mmHg 50%
    10:00 +30°C° 0 mm 4 m/S 759 mmHg 46%
    11:00 +30°C° 0 mm 5 m/S 758 mmHg 48%
    12:00 +30°C° 0 mm 5 m/S 758 mmHg 50%
    13:00 +30°C° 0 mm 5 m/S 758 mmHg 52%
    14:00 +29°C° 0 mm 5 m/S 758 mmHg 53%
    15:00 +29°C° 0 mm 5 m/S 758 mmHg 55%
    16:00 +29°C° 0 mm 5 m/S 758 mmHg 56%
    17:00 +28°C° 0 mm 5 m/S 758 mmHg 61%
    18:00 +27°C° 0 mm 4 m/S 758 mmHg 65%
    19:00 +26°C° 0 mm 4 m/S 758 mmHg 70%
    20:00 +25°C° 0 mm 4 m/S 759 mmHg 70%
    21:00 +25°C° 0 mm 4 m/S 759 mmHg 69%
    22:00 +23°C° 0 mm 4 m/S 759 mmHg 69%
    23:00 +23°C° 0 mm 4 m/S 759 mmHg 71%

    21 Juni, Freitag

    Zeit Temperatur Niederschläge Wind Luftdruck Luftfeuchtigkeit
    00:00 +22°C° 0 mm 4 m/S 759 mmHg 72%
    01:00 +22°C° 0 mm 4 m/S 759 mmHg 74%
    02:00 +22°C° 0 mm 4 m/S 759 mmHg 75%
    03:00 +22°C° 0 mm 4 m/S 759 mmHg 76%
    04:00 +21°C° 0 mm 4 m/S 759 mmHg 77%
    05:00 +23°C° 0 mm 4 m/S 759 mmHg 72%
    06:00 +25°C° 0 mm 4 m/S 759 mmHg 67%
    07:00 +27°C° 0 mm 4 m/S 760 mmHg 62%
    08:00 +28°C° 0 mm 4 m/S 760 mmHg 58%
    09:00 +29°C° 0 mm 4 m/S 760 mmHg 54%
    10:00 +32°C° 0 mm 4 m/S 760 mmHg 50%
    11:00 +32°C° 0 mm 4 m/S 760 mmHg 50%
    12:00 +32°C° 0 mm 5 m/S 759 mmHg 49%
    13:00 +32°C° 0 mm 6 m/S 759 mmHg 49%
    14:00 +32°C° 0 mm 6 m/S 759 mmHg 51%
    15:00 +30°C° 0 mm 5 m/S 759 mmHg 53%
    16:00 +30°C° 0 mm 5 m/S 759 mmHg 55%
    17:00 +29°C° 0 mm 5 m/S 759 mmHg 60%
    18:00 +28°C° 0 mm 5 m/S 759 mmHg 65%
    19:00 +27°C° 0 mm 5 m/S 759 mmHg 70%
    20:00 +26°C° 0 mm 4 m/S 759 mmHg 70%
    21:00 +26°C° 0 mm 4 m/S 760 mmHg 69%
    22:00 +25°C° 0 mm 4 m/S 760 mmHg 69%
    23:00 +25°C° 0 mm 4 m/S 760 mmHg 69%

    22 Juni, Samstag

    Zeit Temperatur Niederschläge Wind Luftdruck Luftfeuchtigkeit
    00:00 +25°C° 0 mm 4 m/S 760 mmHg 68%
    01:00 +25°C° 0 mm 4 m/S 760 mmHg 68%
    02:00 +25°C° 0 mm 4 m/S 760 mmHg 69%
    03:00 +25°C° 0 mm 4 m/S 760 mmHg 70%
    04:00 +23°C° 0 mm 4 m/S 760 mmHg 71%
    05:00 +26°C° 0 mm 4 m/S 760 mmHg 68%
    06:00 +27°C° 0 mm 4 m/S 760 mmHg 64%
    07:00 +29°C° 0 mm 4 m/S 760 mmHg 61%
    08:00 +30°C° 0 mm 4 m/S 760 mmHg 57%
    09:00 +33°C° 0 mm 4 m/S 761 mmHg 52%
    10:00 +34°C° 0 mm 4 m/S 761 mmHg 48%
    11:00 +34°C° 0 mm 4 m/S 761 mmHg 47%
    12:00 +35°C° 0 mm 4 m/S 761 mmHg 46%
    13:00 +35°C° 0 mm 4 m/S 760 mmHg 45%
    14:00 +35°C° 0 mm 4 m/S 760 mmHg 46%
    15:00 +34°C° 0 mm 4 m/S 760 mmHg 46%
    16:00 +34°C° 0 mm 4 m/S 760 mmHg 47%
    17:00 +33°C° 0 mm 4 m/S 760 mmHg 53%
    18:00 +30°C° 0 mm 3 m/S 760 mmHg 59%
    19:00 +29°C° 0 mm 3 m/S 760 mmHg 65%
    20:00 +29°C° 0 mm 3 m/S 760 mmHg 64%
    21:00 +28°C° 0 mm 2 m/S 761 mmHg 63%
    22:00 +28°C° 0 mm 2 m/S 761 mmHg 62%
    23:00 +28°C° 0 mm 1 m/S 761 mmHg 59%

    23 Juni, Sonntag

    Zeit Temperatur Niederschläge Wind Luftdruck Luftfeuchtigkeit
    00:00 +27°C° 0 mm 1 m/S 761 mmHg 57%
    01:00 +27°C° 0 mm 1 m/S 760 mmHg 55%
    02:00 +27°C° 0 mm 1 m/S 760 mmHg 54%
    03:00 +27°C° 0 mm 1 m/S 760 mmHg 53%
    04:00 +27°C° 0 mm 1 m/S 760 mmHg 52%
    05:00 +28°C° 0 mm 1 m/S 760 mmHg 50%
    06:00 +29°C° 0 mm 2 m/S 761 mmHg 48%
    07:00 +31°C° 0 mm 2 m/S 761 mmHg 46%
    08:00 +31°C° 0 mm 2 m/S 761 mmHg 46%
    09:00 +32°C° 0 mm 2 m/S 761 mmHg 46%
    10:00 +34°C° 0 mm 2 m/S 761 mmHg 46%
    11:00 +34°C° 0 mm 2 m/S 761 mmHg 45%
    12:00 +34°C° 0 mm 2 m/S 761 mmHg 45%
    13:00 +34°C° 0 mm 2 m/S 761 mmHg 45%
    14:00 +34°C° 0 mm 2 m/S 761 mmHg 46%
    15:00 +32°C° 0 mm 2 m/S 761 mmHg 47%
    16:00 +33°C° 0 mm 3 m/S 761 mmHg 48%
    17:00 +31°C° 0 mm 3 m/S 761 mmHg 52%
    18:00 +30°C° 0 mm 3 m/S 761 mmHg 56%
    19:00 +28°C° 0 mm 3 m/S 761 mmHg 60%
    20:00 +28°C° 0 mm 3 m/S 761 mmHg 58%
    21:00 +28°C° 0 mm 3 m/S 761 mmHg 56%
    22:00 +28°C° 0 mm 3 m/S 762 mmHg 54%
    23:00 +27°C° 0 mm 3 m/S 762 mmHg 55%
    Mehr zeigen